"startDT [UTC]","vpos","CH4 [ppm]","stdev(CH4) [ppm]","CO2 [ppm]","stdev(CO2) [ppm]","H2O [ppm]","stdev(H2O)","p_LGR [torr]","T_LGR [C]","mt1_LGR [us]","mt2_LGR [us]","T_ECpre [C]","T_EC1 [C]","T_EC2 [C]","p_inlet [hPa]","p_in [hPa]","p_out [hPa]","T_inlet [C]","RH_inlet [%]","dwpt_inlet [C]","T_vent [C]","RH_vent [%]","dwpt_vent [C]","flow_vent [l min-1]","flow_inlet [l min-1]","dwpt_sample [C]","T_room [C]"
2012-09-16 00:00:00,0.0,1.9227,0.0008,389.27,0.27,192.4,33.4,138.06,31.33,24.66,36.51,0.97,-25.60,-26.47,-47,42,-942,23.5,16.7,-3.2,23.6,1.8,-29.8,5.73,2.59,-28.2,28.9
2012-09-16 00:01:00,0.0,1.9229,0.0008,389.21,0.29,185.5,27.8,138.06,31.32,24.65,36.51,1.01,-25.85,-26.48,-47,42,-941,23.5,16.5,-3.3,23.6,1.8,-29.8,5.73,2.60,-28.2,28.8
2012-09-16 00:02:00,0.0,1.9229,0.0009,389.21,0.27,197.8,32.0,138.06,31.32,24.66,36.51,1.05,-26.09,-26.48,-47,42,-942,23.5,16.4,-3.5,23.6,1.8,-29.8,5.73,2.62,-28.2,28.8
2012-09-16 00:03:00,0.0,1.9232,0.0010,389.27,0.32,189.2,27.4,138.06,31.32,24.65,36.51,1.01,-26.32,-26.49,-47,42,-941,23.5,16.3,-3.5,23.6,1.7,-29.9,5.73,2.58,-28.2,28.9
2012-09-16 00:04:00,0.0,1.9224,0.0009,389.21,0.30,189.6,30.0,138.06,31.32,24.66,36.51,1.00,-26.37,-26.50,-47,42,-942,23.5,16.6,-3.3,23.6,1.8,-29.8,5.73,2.60,-28.2,28.9
2012-09-16 00:05:00,0.0,1.9223,0.0008,389.22,0.30,192.1,28.7,138.06,31.32,24.66,36.51,0.97,-26.16,-26.49,-47,42,-941,23.5,16.4,-3.4,23.6,1.7,-29.9,5.73,2.61,-28.2,28.9
2012-09-16 00:06:00,0.0,1.9221,0.0009,389.16,0.34,188.7,30.1,138.06,31.32,24.66,36.51,0.97,-26.29,-26.51,-47,42,-942,23.6,15.9,-3.8,23.6,1.8,-29.9,5.73,2.57,-28.2,28.8
2012-09-16 00:07:00,0.0,1.9221,0.0008,389.11,0.29,187.6,24.2,138.06,31.32,24.65,36.52,0.97,-26.45,-26.52,-47,42,-941,23.5,15.8,-3.9,23.7,1.8,-29.8,5.73,2.61,-28.2,28.8
2012-09-16 00:08:00,0.0,1.9215,0.0007,389.16,0.27,196.2,25.9,138.06,31.32,24.66,36.51,1.02,-26.19,-26.52,-47,42,-942,23.5,15.8,-4.0,23.6,1.8,-29.9,5.73,2.60,-28.2,28.8
2012-09-16 00:09:00,0.0,1.9216,0.0008,389.21,0.27,186.9,33.5,138.06,31.32,24.65,36.51,1.05,-26.25,-26.53,-47,42,-942,23.5,15.6,-4.1,23.7,1.7,-29.9,5.73,2.58,-28.2,28.8
2012-09-16 00:10:00,0.0,1.9220,0.0008,389.10,0.29,193.9,25.5,138.06,31.31,24.65,36.52,1.02,-26.43,-26.54,-47,42,-942,23.5,15.8,-3.9,23.6,1.8,-29.8,5.73,2.63,-28.2,28.8
2012-09-16 00:11:00,0.0,1.9211,0.0009,389.04,0.30,191.2,30.8,138.06,31.31,24.66,36.52,0.97,-26.34,-26.55,-47,42,-942,23.5,15.6,-4.1,23.6,1.8,-29.8,5.73,2.59,-28.3,28.8
2012-09-16 00:12:00,0.0,1.9212,0.0008,389.19,0.28,185.2,29.4,138.06,31.31,24.66,36.51,0.96,-26.22,-26.55,-47,42,-942,23.5,15.4,-4.3,23.6,1.8,-29.9,5.73,2.59,-28.3,28.8
2012-09-16 00:13:00,0.0,1.9216,0.0008,389.14,0.26,190.3,30.5,138.06,31.31,24.65,36.52,0.98,-26.39,-26.56,-47,42,-942,23.5,15.8,-4.0,23.6,1.8,-29.9,5.73,2.62,-28.3,28.8
2012-09-16 00:14:00,0.0,1.9218,0.0007,389.17,0.23,187.7,32.4,138.06,31.31,24.65,36.51,0.92,-26.48,-26.57,-47,42,-942,23.5,15.5,-4.2,23.6,1.7,-30.1,5.73,2.58,-28.3,28.8
2012-09-16 00:15:00,0.0,1.9218,0.0008,389.20,0.32,182.9,30.0,138.06,31.30,24.65,36.51,1.03,-26.23,-26.58,-47,42,-942,23.5,15.6,-4.1,23.6,1.7,-30.1,5.73,2.60,-28.3,28.9
2012-09-16 00:16:00,0.0,1.9221,0.0007,389.06,0.31,187.9,29.7,138.06,31.30,24.65,36.52,1.04,-26.34,-26.59,-47,42,-941,23.5,15.7,-4.0,23.6,1.7,-30.0,5.73,2.61,-28.3,28.8
2012-09-16 00:17:00,0.0,1.9220,0.0008,389.19,0.25,188.2,26.3,138.06,31.30,24.65,36.51,0.96,-26.54,-26.32,-47,42,-942,23.5,15.6,-4.1,23.6,1.7,-30.1,5.73,2.58,-28.3,28.8
2012-09-16 00:18:00,0.0,1.9222,0.0008,389.23,0.25,184.0,28.3,138.06,31.30,24.65,36.51,0.82,-26.74,-24.80,-47,42,-941,23.5,15.5,-4.2,23.6,1.7,-30.0,5.73,2.61,-28.4,28.8
2012-09-16 00:19:00,0.0,1.9220,0.0010,389.15,0.25,192.8,28.9,138.06,31.30,24.66,36.52,0.86,-26.87,-22.85,-47,42,-942,23.5,16.0,-3.8,23.6,1.7,-30.1,5.73,2.62,-28.1,28.9
2012-09-16 00:20:00,0.0,1.9223,0.0008,389.17,0.31,221.1,33.7,138.06,31.30,24.65,36.51,0.92,-26.93,-20.90,-47,42,-941,23.5,16.0,-3.8,23.6,1.8,-29.7,5.73,2.58,-27.8,28.9
2012-09-16 00:21:00,0.0,1.9221,0.0010,389.17,0.35,238.1,32.3,138.06,31.30,24.66,36.51,0.94,-26.96,-19.00,-47,42,-942,23.5,15.8,-3.9,23.6,1.9,-29.1,5.73,2.62,-27.4,28.8
2012-09-16 00:22:00,0.0,1.9218,0.0007,389.09,0.26,251.6,33.5,138.06,31.30,24.65,36.51,0.93,-26.97,-17.19,-47,42,-942,23.5,15.3,-4.4,23.6,2.0,-28.7,5.73,2.60,-27.3,28.9
2012-09-16 00:23:00,0.0,1.9219,0.0008,389.10,0.26,260.6,31.5,138.06,31.30,24.66,36.52,0.80,-26.96,-15.48,-47,42,-941,23.5,15.3,-4.4,23.6,2.0,-28.4,5.73,2.58,-27.1,28.8
2012-09-16 00:24:00,0.0,1.9222,0.0009,389.12,0.26,264.0,32.7,138.06,31.30,24.66,36.51,0.83,-26.95,-13.86,-47,42,-942,23.5,15.4,-4.3,23.6,2.0,-28.3,5.73,2.62,-27.1,28.9
2012-09-16 00:25:00,0.0,1.9226,0.0010,389.18,0.26,267.7,35.2,138.06,31.30,24.65,36.51,0.87,-26.93,-12.31,-47,42,-941,23.5,15.7,-4.1,23.6,2.0,-28.3,5.73,2.61,-27.1,28.9
2012-09-16 00:26:00,0.0,1.9242,0.0011,389.15,0.25,268.1,28.7,138.06,31.30,24.65,36.52,0.91,-26.92,-10.85,-47,42,-942,23.5,16.1,-3.7,23.6,2.0,-28.2,5.73,2.58,-27.0,28.9
2012-09-16 00:27:00,0.0,1.9272,0.0013,389.23,0.26,267.5,22.3,138.06,31.30,24.66,36.52,0.94,-26.89,-9.47,-47,42,-942,23.5,16.9,-3.1,23.6,2.0,-28.3,5.73,2.62,-27.1,28.9
2012-09-16 00:28:00,0.0,1.9288,0.0010,389.37,0.29,258.5,31.9,138.05,31.30,24.66,36.51,0.94,-26.86,-8.16,-47,42,-942,23.5,17.1,-2.9,23.6,2.0,-28.3,5.73,2.61,-27.1,29.0
2012-09-16 00:29:00,0.0,1.9291,0.0011,389.42,0.30,262.8,29.7,138.05,31.30,24.65,36.51,0.88,-26.84,-6.91,-47,42,-942,23.5,17.1,-2.9,23.6,2.0,-28.4,5.73,2.58,-27.1,28.9
2012-09-16 00:30:00,0.0,1.9255,0.0010,389.19,0.28,258.4,28.0,138.05,31.30,24.66,36.51,0.84,-26.81,-5.73,-47,42,-941,23.5,16.7,-3.3,23.6,2.0,-28.4,5.73,2.61,-27.1,29.0
2012-09-16 00:31:00,0.0,1.9258,0.0022,389.28,0.24,259.2,26.4,138.05,31.30,24.65,36.51,0.85,-26.79,-4.61,-47,42,-942,23.5,16.4,-3.5,23.6,2.0,-28.5,5.73,2.61,-27.1,29.0
2012-09-16 00:32:00,0.0,1.9303,0.0012,389.37,0.27,259.9,28.6,138.05,31.30,24.65,36.51,0.89,-26.77,-3.55,-47,42,-941,23.5,17.2,-2.8,23.6,2.0,-28.6,5.73,2.58,-27.2,28.9
2012-09-16 00:33:00,0.0,1.9312,0.0008,389.56,0.28,252.2,33.2,138.05,31.30,24.65,36.50,0.90,-26.74,-2.53,-47,42,-942,23.5,17.3,-2.7,23.6,2.0,-28.6,5.73,2.61,-27.1,28.9
2012-09-16 00:34:00,0.0,1.9316,0.0008,389.43,0.28,253.1,32.5,138.05,31.30,24.65,36.51,0.93,-26.72,-1.57,-47,42,-942,23.5,17.7,-2.4,23.6,2.0,-28.6,5.73,2.62,-27.2,28.9
2012-09-16 00:35:00,0.0,1.9322,0.0009,389.30,0.34,250.6,33.3,138.05,31.30,24.66,36.52,0.94,-26.70,-0.66,-47,42,-941,23.5,17.6,-2.6,23.6,2.0,-28.6,5.73,2.58,-27.2,29.0
2012-09-16 00:36:00,0.0,1.9323,0.0009,389.43,0.28,253.6,28.2,138.05,31.30,24.66,36.52,0.94,-26.67,0.22,-47,42,-942,23.5,17.5,-2.6,23.6,2.0,-28.8,5.73,2.60,-27.2,28.9
2012-09-16 00:37:00,0.0,1.9324,0.0011,389.43,0.26,241.0,33.1,138.05,31.31,24.65,36.52,0.91,-26.65,1.04,-47,42,-941,23.5,17.8,-2.4,23.6,1.9,-28.8,5.73,2.62,-27.3,28.9
2012-09-16 00:38:00,0.0,1.9306,0.0010,389.43,0.26,242.2,31.7,138.05,31.31,24.65,36.51,0.88,-26.63,1.81,-47,42,-942,23.5,17.6,-2.6,23.6,1.9,-28.8,5.73,2.59,-27.3,29.0
2012-09-16 00:39:00,0.0,1.9300,0.0009,389.35,0.30,241.6,32.5,138.05,31.31,24.66,36.51,0.86,-26.61,2.51,-47,42,-942,23.5,17.7,-2.5,23.6,2.0,-28.7,5.73,2.58,-27.3,29.0
2012-09-16 00:40:00,0.0,1.9301,0.0009,389.34,0.24,238.5,29.1,138.05,31.31,24.65,36.51,0.88,-26.59,3.03,-47,42,-941,23.5,17.6,-2.5,23.6,1.9,-28.8,5.73,2.62,-27.3,28.9
2012-09-16 00:41:00,0.0,1.9301,0.0009,389.32,0.23,244.3,32.9,138.05,31.31,24.65,36.51,0.90,-26.57,3.26,-47,42,-942,23.5,17.8,-2.4,23.6,1.9,-28.9,5.73,2.60,-27.3,29.0
2012-09-16 00:42:00,0.0,1.9294,0.0009,389.33,0.30,244.0,27.5,138.05,31.31,24.66,36.51,0.91,-26.55,3.45,-47,42,-941,23.5,17.9,-2.3,23.6,1.9,-28.9,5.73,2.58,-27.4,29.0
2012-09-16 00:43:00,0.0,1.9296,0.0008,389.34,0.26,241.4,26.2,138.05,31.31,24.66,36.51,0.92,-26.53,3.82,-47,42,-942,23.5,18.0,-2.2,23.6,1.9,-28.9,5.73,2.61,-27.4,29.0
2012-09-16 00:44:00,0.0,1.9298,0.0009,389.33,0.31,242.2,32.7,138.05,31.31,24.65,36.51,0.94,-26.51,4.36,-47,42,-941,23.5,17.8,-2.3,23.6,1.9,-28.9,5.73,2.62,-27.4,29.0
2012-09-16 00:45:00,0.0,1.9298,0.0009,389.28,0.28,240.1,24.3,138.05,31.31,24.66,36.52,0.94,-26.49,4.96,-47,42,-942,23.5,17.9,-2.3,23.6,1.9,-28.9,5.73,2.58,-27.4,29.0
2012-09-16 00:46:00,0.0,1.9308,0.0009,389.31,0.27,238.6,30.2,138.05,31.31,24.65,36.52,0.94,-26.47,5.53,-47,42,-942,23.5,17.8,-2.4,23.6,1.9,-28.9,5.73,2.59,-27.4,29.0
2012-09-16 00:47:00,0.0,1.9313,0.0010,389.41,0.28,244.6,34.2,138.05,31.32,24.65,36.51,0.95,-26.46,6.08,-47,42,-941,23.5,17.6,-2.5,23.6,1.9,-29.0,5.73,2.62,-27.4,29.0
2012-09-16 00:48:00,0.0,1.9315,0.0010,389.40,0.33,236.5,27.6,138.05,31.32,24.65,36.51,0.93,-26.44,6.58,-47,42,-942,23.5,17.7,-2.5,23.6,1.9,-29.1,5.73,2.60,-27.4,29.0
2012-09-16 00:49:00,0.0,1.9304,0.0011,389.37,0.33,241.4,30.7,138.05,31.32,24.66,36.51,0.91,-26.43,7.07,-47,42,-941,23.5,17.8,-2.4,23.6,1.9,-29.1,5.73,2.58,-27.4,29.0
2012-09-16 00:50:00,0.0,1.9295,0.0008,389.30,0.27,233.8,30.3,138.05,31.32,24.65,36.52,0.88,-26.41,7.54,-47,42,-942,23.5,17.7,-2.5,23.6,1.9,-29.0,5.73,2.61,-27.4,29.0
2012-09-16 00:51:00,0.0,1.9290,0.0008,389.25,0.25,236.0,27.0,138.05,31.32,24.66,36.52,0.89,-26.40,7.99,-47,42,-941,23.5,17.6,-2.5,23.6,1.9,-29.1,5.73,2.61,-27.4,29.0
2012-09-16 00:52:00,0.0,1.9292,0.0009,389.28,0.27,241.9,27.1,138.05,31.32,24.65,36.51,0.90,-26.38,8.41,-46,42,-942,23.5,17.8,-2.4,23.6,1.9,-29.1,5.73,2.58,-27.4,29.0
2012-09-16 00:53:00,0.0,1.9295,0.0009,389.39,0.34,242.8,32.7,138.05,31.32,24.65,36.51,0.91,-26.37,8.83,-47,42,-941,23.5,17.6,-2.5,23.6,1.9,-29.1,5.73,2.59,-27.4,29.0
2012-09-16 00:54:00,0.0,1.9295,0.0010,389.32,0.28,234.2,30.3,138.05,31.32,24.65,36.51,0.90,-26.36,9.22,-47,42,-942,23.5,17.2,-2.9,23.6,1.9,-29.1,5.73,2.62,-27.4,29.0
2012-09-16 00:55:00,0.0,1.9291,0.0008,389.22,0.29,237.5,29.2,138.05,31.32,24.66,36.51,0.94,-26.35,9.61,-46,42,-942,23.5,16.9,-3.1,23.6,1.9,-29.1,5.73,2.59,-27.4,29.0
2012-09-16 00:56:00,0.0,1.9290,0.0009,389.23,0.29,237.2,30.3,138.05,31.33,24.66,36.52,0.93,-26.34,9.99,-47,42,-942,23.5,16.9,-3.1,23.6,1.9,-29.1,5.73,2.58,-27.4,29.0
2012-09-16 00:57:00,0.0,1.9295,0.0009,389.27,0.30,239.9,31.8,138.05,31.32,24.65,36.51,0.94,-26.32,10.36,-47,42,-941,23.5,17.0,-3.0,23.6,1.9,-29.0,5.73,2.61,-27.4,29.0
2012-09-16 00:58:00,0.0,1.9290,0.0010,389.33,0.26,237.2,26.4,138.05,31.32,24.65,36.51,0.94,-26.32,10.71,-46,42,-942,23.5,17.1,-2.9,23.6,1.9,-29.1,5.73,2.61,-27.4,29.0
2012-09-16 00:59:00,0.0,1.9288,0.0010,389.15,0.29,230.0,33.6,138.05,31.32,24.66,36.52,0.95,-26.30,11.05,-47,42,-942,23.5,17.2,-2.8,23.6,1.9,-29.1,5.73,2.58,-27.4,29.1
2012-09-16 01:00:00,0.0,1.9292,0.0010,389.29,0.28,233.8,30.0,138.05,31.32,24.66,36.52,0.94,-26.30,11.37,-47,42,-942,23.5,16.9,-3.1,23.6,1.9,-29.0,5.73,2.58,-27.4,29.1
2012-09-16 01:01:00,0.0,1.9297,0.0011,389.31,0.29,230.0,35.7,138.05,31.33,24.66,36.51,0.93,-26.29,11.69,-47,42,-942,23.5,16.8,-3.2,23.6,1.9,-29.0,5.73,2.61,-27.4,29.1
2012-09-16 01:02:00,0.0,1.9301,0.0009,389.31,0.27,234.9,26.0,138.05,31.33,24.65,36.52,0.93,-26.29,12.00,-47,42,-941,23.5,16.6,-3.3,23.6,1.9,-29.0,5.73,2.60,-27.4,29.0
2012-09-16 01:03:00,0.0,1.9297,0.0008,389.32,0.27,235.3,28.9,138.05,31.33,24.65,36.52,0.90,-26.28,12.29,-47,42,-942,23.5,16.3,-3.6,23.6,1.9,-29.0,5.73,2.57,-27.4,29.0
2012-09-16 01:04:00,0.0,1.9297,0.0008,389.27,0.27,233.2,32.2,138.05,31.33,24.65,36.52,0.91,-26.27,12.57,-47,42,-941,23.5,16.0,-3.8,23.6,1.9,-29.1,5.73,2.58,-27.4,29.0
2012-09-16 01:05:00,0.0,1.9295,0.0010,389.29,0.30,233.1,35.0,138.05,31.33,24.66,36.51,0.90,-26.27,12.84,-47,42,-942,23.5,16.0,-3.8,23.6,1.9,-29.0,5.73,2.62,-27.4,29.0
2012-09-16 01:06:00,0.0,1.9294,0.0009,389.35,0.32,231.6,28.1,138.05,31.34,24.65,36.51,0.91,-26.26,13.11,-47,42,-942,23.5,16.1,-3.7,23.6,1.9,-29.0,5.73,2.60,-27.4,29.0
2012-09-16 01:07:00,0.0,1.9285,0.0008,389.30,0.25,233.9,30.7,138.05,31.34,24.66,36.51,0.91,-26.25,13.36,-47,42,-942,23.5,16.3,-3.5,23.6,1.9,-29.1,5.73,2.57,-27.4,29.0
2012-09-16 01:08:00,0.0,1.9287,0.0009,389.23,0.27,235.7,29.2,138.05,31.34,24.66,36.51,0.91,-26.25,13.59,-47,42,-941,23.5,16.0,-3.8,23.6,1.9,-29.0,5.73,2.60,-27.4,29.0
2012-09-16 01:09:00,0.0,1.9285,0.0008,389.20,0.32,234.8,27.3,138.05,31.34,24.66,36.52,0.91,-26.24,13.82,-47,42,-942,23.5,16.0,-3.8,23.6,1.9,-29.1,5.73,2.62,-27.4,29.0
2012-09-16 01:10:00,0.0,1.9285,0.0009,389.28,0.29,229.9,32.7,138.05,31.34,24.66,36.51,0.94,-26.24,14.05,-47,42,-942,23.5,15.9,-3.9,23.6,1.9,-29.0,5.73,2.59,-27.4,29.1
2012-09-16 01:11:00,0.0,1.9286,0.0008,389.17,0.32,228.9,24.2,138.05,31.34,24.65,36.52,0.93,-26.24,14.25,-47,42,-942,23.5,15.8,-4.0,23.6,1.9,-29.1,5.73,2.57,-27.4,29.0
2012-09-16 01:12:00,0.0,1.9283,0.0009,389.21,0.29,226.2,31.5,138.05,31.35,24.65,36.51,0.94,-26.23,14.46,-47,42,-941,23.5,15.8,-4.0,23.6,1.9,-29.1,5.73,2.60,-27.4,29.1
2012-09-16 01:13:00,0.0,1.9277,0.0008,389.22,0.26,234.6,32.0,138.05,31.34,24.65,36.51,0.93,-26.23,14.65,-47,42,-942,23.5,15.5,-4.2,23.6,1.9,-29.0,5.73,2.61,-27.4,29.1
2012-09-16 01:14:00,0.0,1.9272,0.0010,389.20,0.24,232.6,31.3,138.05,31.34,24.66,36.51,0.93,-26.23,14.83,-47,42,-942,23.5,15.9,-3.9,23.6,1.9,-29.1,5.73,2.58,-27.4,29.0
2012-09-16 01:15:00,0.0,1.9267,0.0009,389.15,0.30,240.9,35.0,138.05,31.34,24.65,36.51,0.93,-26.23,15.01,-47,42,-942,23.5,15.3,-4.4,23.6,1.9,-29.1,5.73,2.58,-27.4,29.0
2012-09-16 01:16:00,0.0,1.9268,0.0009,389.27,0.27,229.9,32.9,138.05,31.34,24.66,36.51,0.94,-26.22,15.18,-47,41,-942,23.5,15.5,-4.2,23.6,1.9,-29.1,5.73,2.61,-27.4,29.0
2012-09-16 01:17:00,0.0,1.9269,0.0009,389.18,0.27,235.4,33.2,138.05,31.34,24.66,36.52,0.94,-26.22,15.34,-47,41,-942,23.5,16.0,-3.8,23.6,1.9,-29.1,5.73,2.60,-27.4,29.0
2012-09-16 01:18:00,0.0,1.9266,0.0008,389.19,0.25,229.8,34.8,138.05,31.34,24.65,36.51,0.95,-26.23,15.49,-47,42,-942,23.5,15.8,-3.9,23.6,1.9,-29.0,5.73,2.57,-27.4,29.0
2012-09-16 01:19:00,0.0,1.9262,0.0007,389.20,0.22,230.7,33.9,138.05,31.35,24.66,36.51,0.94,-26.23,15.64,-47,42,-942,23.5,15.4,-4.3,23.6,1.9,-29.1,5.73,2.59,-27.4,29.0
2012-09-16 01:20:00,1.0,1.8983,0.0157,380.14,4.99,262.8,34.4,138.05,31.35,24.65,36.52,0.97,-26.22,15.80,-43,-2,-942,23.5,15.4,-4.3,23.6,1.9,-29.3,5.73,2.44,-27.1,29.0
2012-09-16 01:21:00,1.0,1.8832,0.0009,375.42,0.30,283.9,31.2,138.05,31.35,24.66,36.52,0.93,-26.22,15.92,-43,-2,-942,23.5,15.7,-4.0,23.6,1.8,-29.5,5.73,2.44,-27.0,29.1
2012-09-16 01:22:00,1.0,1.8834,0.0008,375.42,0.31,273.2,22.8,138.05,31.35,24.65,36.52,0.93,-26.22,16.05,-43,-2,-942,23.5,15.9,-3.9,23.6,1.8,-29.5,5.73,2.45,-27.3,29.1
2012-09-16 01:23:00,1.0,1.8831,0.0008,375.41,0.28,247.3,31.1,138.05,31.35,24.66,36.52,0.92,-26.22,16.18,-43,-2,-942,23.5,15.6,-4.1,23.7,1.8,-29.5,5.73,2.45,-27.7,29.1
2012-09-16 01:24:00,1.0,1.8830,0.0009,375.34,0.28,219.4,31.0,138.05,31.35,24.66,36.52,0.92,-26.23,16.29,-43,-2,-942,23.6,15.4,-4.2,23.7,1.8,-29.5,5.73,2.45,-28.1,29.1
2012-09-16 01:25:00,0.0,1.9144,0.0152,385.16,4.76,125.2,38.2,138.05,31.35,24.65,36.52,0.88,-26.24,16.41,-47,42,-942,23.6,15.6,-4.0,23.7,1.8,-29.5,5.73,2.56,-29.6,29.1
2012-09-16 01:26:00,0.0,1.9275,0.0008,389.31,0.29,129.3,28.9,138.05,31.36,24.65,36.51,0.90,-26.24,16.52,-47,41,-942,23.6,15.0,-4.6,23.7,1.8,-29.3,5.73,2.60,-28.8,29.1
2012-09-16 01:27:00,0.0,1.9273,0.0009,389.35,0.26,165.5,25.3,138.05,31.36,24.65,36.51,0.92,-26.24,16.62,-47,41,-942,23.7,15.0,-4.6,23.8,1.9,-29.2,5.73,2.61,-28.4,29.1
2012-09-16 01:28:00,0.0,1.9276,0.0008,389.22,0.28,190.2,31.7,138.05,31.36,24.65,36.52,0.92,-26.24,16.72,-47,41,-942,23.7,15.0,-4.5,23.8,1.9,-29.1,5.73,2.59,-28.2,29.1
2012-09-16 01:29:00,0.0,1.9278,0.0009,389.37,0.24,197.3,31.3,138.05,31.36,24.66,36.51,0.92,-26.25,16.82,-47,41,-942,23.7,15.6,-4.0,23.8,1.9,-29.1,5.73,2.58,-28.0,29.1
2012-09-16 01:30:00,0.0,1.9282,0.0009,389.34,0.26,201.0,30.2,138.05,31.36,24.66,36.52,0.90,-26.24,16.91,-47,41,-942,23.7,15.7,-3.9,23.8,1.9,-29.1,5.73,2.61,-27.9,29.1
2012-09-16 01:31:00,0.0,1.9287,0.0010,389.32,0.25,203.7,31.4,138.05,31.36,24.65,36.52,0.93,-26.24,17.00,-47,41,-942,23.7,15.3,-4.2,23.8,1.9,-29.1,5.73,2.61,-27.8,29.1
2012-09-16 01:32:00,0.0,1.9280,0.0011,389.35,0.26,208.4,26.9,138.05,31.36,24.66,36.52,0.93,-26.24,17.08,-47,41,-942,23.7,15.3,-4.3,23.8,1.9,-29.1,5.73,2.57,-27.8,29.2
2012-09-16 01:33:00,0.0,1.9277,0.0009,389.48,0.29,199.0,34.5,138.05,31.36,24.66,36.50,0.92,-26.23,17.17,-47,42,-942,23.7,15.1,-4.4,23.8,1.9,-29.1,5.73,2.59,-27.7,29.2
2012-09-16 01:34:00,0.0,1.9292,0.0011,389.39,0.29,218.8,27.8,138.05,31.36,24.65,36.51,0.94,-26.23,17.24,-47,41,-942,23.7,15.3,-4.2,23.8,1.9,-29.0,5.73,2.62,-27.7,29.2
2012-09-16 01:35:00,0.0,1.9293,0.0009,389.27,0.25,215.9,29.6,138.05,31.36,24.65,36.52,0.93,-26.23,17.31,-47,41,-942,23.7,15.2,-4.3,23.8,1.9,-29.1,5.73,2.59,-27.7,29.2
2012-09-16 01:36:00,0.0,1.9305,0.0009,389.48,0.33,217.2,25.3,138.05,31.35,24.66,36.51,0.93,-26.22,17.38,-47,41,-942,23.7,15.1,-4.3,23.8,1.9,-29.1,5.73,2.57,-27.7,29.2
2012-09-16 01:37:00,0.0,1.9306,0.0008,389.42,0.25,218.3,30.4,138.05,31.35,24.66,36.51,0.93,-26.22,17.45,-47,41,-942,23.7,15.0,-4.4,23.8,1.9,-29.1,5.73,2.61,-27.6,29.2
2012-09-16 01:38:00,0.0,1.9304,0.0008,389.39,0.25,214.3,33.4,138.05,31.35,24.66,36.52,0.94,-26.21,17.52,-47,41,-942,23.7,15.1,-4.4,23.8,1.9,-29.1,5.73,2.61,-27.6,29.2
2012-09-16 01:39:00,0.0,1.9310,0.0010,389.42,0.24,223.4,31.5,138.05,31.35,24.65,36.52,0.94,-26.22,17.58,-47,41,-942,23.7,15.2,-4.3,23.8,1.9,-29.1,5.73,2.57,-27.6,29.2
2012-09-16 01:40:00,0.0,1.9308,0.0011,389.31,0.31,221.8,31.3,138.05,31.35,24.66,36.52,0.94,-26.21,17.63,-47,41,-943,23.7,15.1,-4.4,23.8,1.9,-29.0,5.73,2.59,-27.6,29.2
2012-09-16 01:41:00,0.0,1.9304,0.0008,389.43,0.28,227.9,35.1,138.05,31.35,24.66,36.51,0.95,-26.21,17.70,-47,41,-942,23.7,15.3,-4.2,23.8,1.9,-29.1,5.73,2.61,-27.6,29.2
2012-09-16 01:42:00,0.0,1.9307,0.0010,389.45,0.30,224.0,28.6,138.05,31.35,24.66,36.52,0.94,-26.21,17.75,-47,41,-943,23.7,15.2,-4.3,23.8,1.9,-29.1,5.73,2.59,-27.5,29.2
2012-09-16 01:43:00,0.0,1.9310,0.0010,389.39,0.26,219.8,29.3,138.05,31.35,24.66,36.51,0.94,-26.20,17.81,-47,41,-942,23.7,15.1,-4.4,23.8,1.9,-29.1,5.73,2.57,-27.6,29.2
2012-09-16 01:44:00,0.0,1.9311,0.0009,389.46,0.26,219.9,25.4,138.05,31.36,24.66,36.51,0.94,-26.20,17.86,-47,41,-942,23.7,15.2,-4.4,23.8,1.9,-29.1,5.73,2.61,-27.6,29.2
2012-09-16 01:45:00,0.0,1.9310,0.0008,389.36,0.30,224.7,34.6,138.05,31.36,24.66,36.52,0.92,-26.20,17.90,-47,41,-942,23.6,15.4,-4.1,23.8,1.9,-29.1,5.73,2.62,-27.5,29.2
2012-09-16 01:46:00,0.0,1.9313,0.0008,389.39,0.29,227.4,29.7,138.05,31.36,24.65,36.52,0.93,-26.19,17.95,-47,41,-942,23.6,15.5,-4.1,23.8,1.9,-29.1,5.73,2.58,-27.6,29.2
2012-09-16 01:47:00,0.0,1.9312,0.0009,389.39,0.25,222.6,30.6,138.05,31.36,24.65,36.51,0.92,-26.19,18.00,-47,41,-942,23.6,15.3,-4.3,23.8,1.9,-29.1,5.73,2.58,-27.6,29.2
2012-09-16 01:48:00,0.0,1.9309,0.0008,389.38,0.32,231.9,25.7,138.05,31.36,24.65,36.51,0.91,-26.19,18.03,-47,41,-942,23.6,15.5,-4.1,23.8,1.9,-29.1,5.73,2.62,-27.6,29.2
2012-09-16 01:49:00,0.0,1.9309,0.0009,389.49,0.26,222.6,29.1,138.05,31.35,24.65,36.52,0.91,-26.19,18.07,-47,41,-942,23.6,15.5,-4.1,23.8,1.9,-29.1,5.73,2.60,-27.6,29.2
2012-09-16 01:50:00,0.0,1.9299,0.0011,389.42,0.27,225.8,29.9,138.05,31.35,24.66,36.51,0.92,-26.19,18.11,-47,41,-942,23.6,15.3,-4.3,23.8,1.9,-29.1,5.73,2.57,-27.6,29.2
2012-09-16 01:51:00,0.0,1.9309,0.0008,389.43,0.24,224.3,25.1,138.05,31.35,24.65,36.51,0.92,-26.19,18.15,-47,41,-942,23.6,15.1,-4.4,23.8,1.9,-29.1,5.73,2.60,-27.5,29.2
2012-09-16 01:52:00,0.0,1.9316,0.0008,389.38,0.24,226.2,31.0,138.05,31.35,24.66,36.52,0.92,-26.19,18.18,-47,41,-942,23.7,15.3,-4.2,23.8,1.9,-29.1,5.73,2.62,-27.5,29.2
2012-09-16 01:53:00,0.0,1.9322,0.0009,389.55,0.29,226.2,28.0,138.05,31.35,24.66,36.51,0.92,-26.19,18.22,-47,41,-943,23.6,15.4,-4.2,23.8,1.9,-29.1,5.73,2.57,-27.6,29.2
2012-09-16 01:54:00,0.0,1.9325,0.0009,389.52,0.28,224.1,28.1,138.05,31.35,24.65,36.51,0.91,-26.19,18.25,-47,41,-942,23.6,15.3,-4.3,23.8,1.9,-29.1,5.73,2.58,-27.6,29.2
2012-09-16 01:55:00,0.0,1.9331,0.0010,389.52,0.29,221.7,30.1,138.05,31.35,24.65,36.51,0.93,-26.19,18.28,-47,41,-943,23.6,15.4,-4.2,23.8,1.9,-29.1,5.73,2.62,-27.6,29.2
2012-09-16 01:56:00,0.0,1.9331,0.0008,389.54,0.28,231.5,26.8,138.05,31.35,24.65,36.51,0.94,-26.19,18.31,-47,41,-942,23.6,15.6,-4.0,23.8,1.9,-29.1,5.73,2.60,-27.6,29.2
2012-09-16 01:57:00,0.0,1.9329,0.0010,389.59,0.28,220.4,30.9,138.05,31.35,24.66,36.51,0.91,-26.19,18.34,-47,41,-943,23.6,15.6,-4.1,23.7,1.9,-29.1,5.73,2.57,-27.6,29.2
2012-09-16 01:58:00,0.0,1.9330,0.0010,389.54,0.24,224.4,31.6,138.05,31.35,24.65,36.52,0.93,-26.19,18.36,-47,41,-942,23.6,15.8,-3.9,23.7,1.9,-29.1,5.73,2.60,-27.6,29.2
2012-09-16 01:59:00,0.0,1.9333,0.0007,389.53,0.26,228.3,30.6,138.05,31.35,24.65,36.51,0.93,-26.19,18.38,-47,41,-943,23.6,15.6,-4.1,23.7,1.9,-29.1,5.73,2.61,-27.6,29.2
2012-09-16 02:00:00,0.0,1.9333,0.0010,389.59,0.29,224.5,30.6,138.05,31.35,24.66,36.51,0.93,-26.19,18.41,-47,41,-942,23.6,15.6,-4.0,23.8,1.9,-29.1,5.73,2.58,-27.6,29.2
2012-09-16 02:01:00,0.0,1.9336,0.0009,389.56,0.34,218.6,26.5,138.05,31.36,24.65,36.51,0.93,-26.19,18.43,-47,41,-943,23.6,15.9,-3.7,23.8,1.9,-29.1,5.73,2.57,-27.6,29.2
2012-09-16 02:02:00,0.0,1.9337,0.0008,389.55,0.31,221.6,28.8,138.05,31.36,24.66,36.51,0.93,-26.19,18.45,-47,41,-942,23.6,16.3,-3.5,23.8,1.9,-29.1,5.73,2.61,-27.6,29.2
2012-09-16 02:03:00,0.0,1.9334,0.0010,389.56,0.30,219.6,27.3,138.05,31.36,24.65,36.51,0.93,-26.19,18.48,-47,41,-942,23.6,15.9,-3.8,23.7,1.9,-29.1,5.73,2.61,-27.6,29.2
2012-09-16 02:04:00,0.0,1.9329,0.0010,389.63,0.24,224.3,27.2,138.05,31.36,24.65,36.51,0.94,-26.18,18.50,-47,41,-943,23.6,15.5,-4.1,23.7,1.9,-29.1,5.73,2.57,-27.6,29.1
2012-09-16 02:05:00,0.0,1.9322,0.0009,389.46,0.24,224.1,29.2,138.05,31.36,24.65,36.51,0.93,-26.19,18.52,-47,41,-942,23.6,15.4,-4.2,23.8,1.9,-29.1,5.73,2.59,-27.6,29.2
2012-09-16 02:06:00,0.0,1.9316,0.0009,389.52,0.34,225.3,26.5,138.05,31.36,24.66,36.51,0.94,-26.19,18.53,-47,41,-943,23.6,15.5,-4.1,23.8,1.9,-29.1,5.73,2.62,-27.6,29.2
2012-09-16 02:07:00,0.0,1.9321,0.0010,389.59,0.30,224.9,30.0,138.05,31.36,24.65,36.51,0.95,-26.18,18.55,-47,41,-942,23.6,15.8,-3.9,23.7,1.9,-29.2,5.73,2.59,-27.6,29.1
2012-09-16 02:08:00,0.0,1.9311,0.0010,389.53,0.31,221.0,33.9,138.05,31.36,24.66,36.51,0.94,-26.19,18.56,-47,41,-943,23.6,15.5,-4.1,23.8,1.9,-29.1,5.73,2.58,-27.6,29.1
2012-09-16 02:09:00,0.0,1.9319,0.0008,389.48,0.29,224.8,31.6,138.05,31.36,24.66,36.52,0.94,-26.19,18.57,-47,41,-942,23.6,15.3,-4.3,23.8,1.9,-29.1,5.73,2.61,-27.6,29.1
2012-09-16 02:10:00,0.0,1.9320,0.0008,389.58,0.34,221.0,28.8,138.05,31.36,24.66,36.51,0.93,-26.19,18.60,-47,41,-943,23.6,15.4,-4.2,23.7,1.9,-29.1,5.73,2.61,-27.6,29.1
2012-09-16 02:11:00,0.0,1.9323,0.0008,389.57,0.29,213.3,29.8,138.05,31.36,24.66,36.51,0.93,-26.19,18.61,-47,41,-942,23.6,15.8,-3.9,23.7,1.9,-29.2,5.73,2.58,-27.6,29.1
2012-09-16 02:12:00,0.0,1.9328,0.0009,389.56,0.25,217.9,27.6,138.05,31.36,24.65,36.52,0.94,-26.19,18.62,-47,41,-942,23.6,16.1,-3.6,23.8,1.9,-29.1,5.73,2.58,-27.6,29.1
2012-09-16 02:13:00,0.0,1.9332,0.0010,389.54,0.28,219.4,28.6,138.05,31.36,24.65,36.51,0.93,-26.19,18.63,-47,41,-943,23.6,15.7,-3.9,23.7,1.9,-29.1,5.73,2.62,-27.6,29.1
2012-09-16 02:14:00,0.0,1.9332,0.0008,389.67,0.29,214.5,29.6,138.05,31.36,24.65,36.51,0.92,-26.19,18.65,-47,41,-942,23.6,15.7,-4.0,23.7,1.9,-29.1,5.73,2.59,-27.6,29.1
2012-09-16 02:15:00,0.0,1.9327,0.0008,389.62,0.30,226.5,31.9,138.05,31.36,24.66,36.51,1.02,-26.18,18.35,-47,41,-943,23.5,15.7,-4.0,23.7,1.9,-29.1,5.73,2.57,-27.6,29.2
2012-09-16 02:16:00,0.0,1.9327,0.0010,389.49,0.31,222.2,36.8,138.05,31.36,24.66,36.52,1.08,-26.18,16.57,-47,41,-942,23.5,15.6,-4.1,23.7,1.9,-29.2,5.73,2.61,-27.6,29.1
2012-09-16 02:17:00,0.0,1.9330,0.0008,389.63,0.31,226.3,25.7,138.05,31.36,24.65,36.50,1.08,-26.18,14.25,-47,41,-942,23.5,15.4,-4.3,23.7,1.9,-29.2,5.73,2.61,-27.6,29.1
2012-09-16 02:18:00,0.0,1.9319,0.0012,389.46,0.35,225.9,29.0,138.05,31.36,24.65,36.51,1.00,-26.21,11.86,-47,41,-943,23.6,15.4,-4.2,23.7,1.9,-29.2,5.73,2.58,-27.6,29.1
2012-09-16 02:19:00,0.0,1.9305,0.0009,389.54,0.29,221.9,29.2,138.05,31.36,24.66,36.51,0.97,-26.23,9.53,-47,41,-942,23.6,15.1,-4.4,23.7,1.9,-29.1,5.73,2.59,-27.6,29.0
2012-09-16 02:20:00,0.0,1.9299,0.0009,389.41,0.25,210.2,34.3,138.05,31.36,24.66,36.51,1.02,-26.24,7.28,-47,42,-943,23.6,15.2,-4.4,23.7,1.9,-29.2,5.73,2.62,-27.7,29.0